ONEWEB-0304 (49092 NORAD) Tracking and Keplerian Element Data

This shows tracking and keplerian element data for the satellite.

Feedback or suggestion? Click here.




ElementValue
Catalog49092
NameONEWEB-0304
Epoch Orbit351
Epoch Day300.58334491
Epoch Year2021
RAAN344.371
Inclination87.5197
Eccentricity0.0024024
Argument of Perigee72.0454
Mean Anonmoly59.9445
Mean Motion14.28653842
Decay Rate-0.01349076
L11 49092U 21075T 21300.58334491 -.01349076 00000-0 -57684+0 0 9993
L22 49092 87.5197 344.3710 0024024 72.0454 59.9445 14.28653842 3517

Live tracking and technical data element details for ONEWEB-0304 (NORAD 49092). ONEWEB-0304 can be tracked NOW for your location showing map with azimuth and elevation plus other details from your city location.

Track the satellite on the map from your city or location and see movement details for azimuth, elevation, latitude, longitude, range, height, and movement on the map or in text.







IsCatalogInMostPopularTable: catalog: 49092, numindb: 13
Update: records affected: 1



GetName: 49092 ONEWEB-0304

Hit Count: updated at: Thu, 28 Oct 2021 11:07:37 GMT